Weather History for KLBT - February, 2015

Change the Weather History Date:

Thursday, February 26, 2015

  Actual Average Record
Temperature  
Mean Temperature 37 °F 49 °F  
Max Temperature 39 °F 61 °F 72 °F (2002)
Min Temperature 35 °F 38 °F 26 °F (2012)
Degree Days  
Heating Degree Days 28 16  
Month to date heating degree days 604 480  
Since 1 July heating degree days 2314 2199  
Cooling Degree Days 0 0  
Month to date cooling degree days 0 0  
Year to date cooling degree days 0 1  
Moisture  
Dew Point 33 °F    
Average Humidity 84    
Maximum Humidity 92    
Minimum Humidity 76    
Precipitation  
Precipitation 0.73 in 0.11 in 1.50 in (2004)
Month to date precipitation 4.77 2.68  
Year to date precipitation 9.46 5.65  
Sea Level Pressure  
Sea Level Pressure 29.81 in    
Wind  
Wind Speed 10 mph (North)    
Max Wind Speed 20 mph    
Max Gust Speed 26 mph    
Visibility 6 miles    
Events Rain    
T = Trace of Precipitation, MM = Missing Value Source: NWS Daily Summary

Daily Weather History Graph

Daily Weather History Graph

Search for Another Location

Airport or City:

Trip Planner

Search our weather history database for the weather conditions in past years. The results will help you decide how hot, cold, wet, or windy it might be!

Date:

Astronomy

Feb. 26, 2015 Rise Set
Actual Time 6:49 AM EST 6:09 PM EST
Civil Twilight 6:24 AM EST 6:34 PM EST
Nautical Twilight 5:54 AM EST 7:04 PM EST
Astronomical Twilight 5:25 AM EST 7:33 PM EST
Moon 12:15 PM EST (2/26) 1:36 AM EST (2/26)
Length of Visible Light 12h 10m
Length of Day
11h 19m
First Quarter, 60% of the Moon is Illuminated
Feb 26
First Quarter
Mar 5
Full
Mar 13
Last Quarter
Mar 20
New
Mar 27
First Quarter

Hourly Weather History & Observations

Time (EST) Temp. Windchill Dew Point Humidity Pressure Visibility Wind Dir Wind Speed Gust Speed Precip Events Conditions
12:08 AM 35.1 °F 24.8 °F 33.1 °F 92% 29.65 in 3.0 mi ENE 17.3 mph - 0.03 in Rain Rain
12:35 AM 36.0 °F 29.0 °F 34.0 °F 93% 29.69 in 4.0 mi NNE 9.2 mph - 0.07 in Rain Rain
12:54 AM 36.0 °F 29.0 °F 34.0 °F 93% 29.70 in 1.8 mi NE 9.2 mph - 0.20 in Rain Heavy Rain
1:03 AM 36.0 °F 28.0 °F 34.0 °F 93% 29.70 in 2.0 mi North 11.5 mph - 0.05 in Rain Heavy Rain
1:27 AM 36.0 °F 28.0 °F 34.0 °F 93% 29.69 in 2.5 mi NNE 11.5 mph - 0.19 in Rain Rain
1:54 AM 36.0 °F 27.5 °F 33.1 °F 89% 29.64 in 3.0 mi NE 12.7 mph 21.9 mph 0.27 in Rain Light Rain
2:01 AM 36.0 °F 28.5 °F 33.1 °F 89% 29.65 in 2.5 mi NE 10.4 mph - 0.04 in Rain Heavy Rain
2:08 AM 36.0 °F 26.7 °F 33.1 °F 89% 29.60 in 1.8 mi ENE 15.0 mph 20.7 mph 0.09 in Rain Heavy Rain
2:17 AM 36.0 °F 27.1 °F 33.1 °F 89% 29.62 in 2.0 mi NNE 13.8 mph 20.7 mph 0.13 in Rain Heavy Rain
2:21 AM 36.0 °F 28.0 °F 34.0 °F 93% 29.62 in 3.0 mi NNE 11.5 mph - 0.13 in Rain Rain
2:45 AM 35.1 °F 26.4 °F 33.1 °F 92% 29.61 in 3.0 mi NNE 12.7 mph - 0.18 in Rain Rain
2:54 AM 35.1 °F 25.2 °F 33.1 °F 92% 29.60 in 3.0 mi NE 16.1 mph - 0.19 in Rain Light Rain
3:32 AM 35.1 °F 26.9 °F 33.1 °F 92% 29.57 in 6.0 mi NE 11.5 mph - 0.04 in   Overcast
3:54 AM 35.1 °F 26.4 °F 33.1 °F 92% 29.57 in 4.0 mi NE 12.7 mph - 0.04 in   Overcast
4:54 AM 35.1 °F 26.4 °F 33.1 °F 92% 29.61 in 3.0 mi North 12.7 mph - 0.03 in   Overcast
5:03 AM 35.1 °F 25.5 °F 33.1 °F 92% 29.61 in 2.5 mi North 15.0 mph 23.0 mph 0.00 in   Overcast
5:10 AM 35.1 °F 26.4 °F 33.1 °F 92% 29.62 in 3.0 mi North 12.7 mph 23.0 mph 0.00 in   Overcast
5:37 AM 35.1 °F 26.4 °F 32.0 °F 89% 29.64 in 2.5 mi North 12.7 mph 25.3 mph 0.00 in   Overcast
5:54 AM 35.1 °F 25.2 °F 32.0 °F 89% 29.65 in 2.5 mi North 16.1 mph 23.0 mph 0.01 in   Overcast
6:05 AM 35.1 °F 25.9 °F 32.0 °F 89% 29.65 in 3.0 mi North 13.8 mph 24.2 mph 0.00 in   Overcast
6:54 AM 35.1 °F 25.9 °F 32.0 °F 89% 29.67 in 5.0 mi North 13.8 mph - 0.00 in   Overcast
7:06 AM 35.1 °F 25.9 °F 32.0 °F 89% 29.67 in 8.0 mi NNE 13.8 mph - N/A   Overcast
7:54 AM 35.1 °F 26.4 °F 32.0 °F 89% 29.73 in 8.0 mi North 12.7 mph - N/A   Overcast
8:18 AM 36.0 °F 27.5 °F 32.0 °F 86% 29.74 in 10.0 mi North 12.7 mph - N/A   Overcast
8:54 AM 36.0 °F 27.1 °F 32.0 °F 86% 29.78 in 9.0 mi North 13.8 mph - N/A   Overcast
9:54 AM 36.0 °F 28.0 °F 33.1 °F 89% 29.80 in 10.0 mi North 11.5 mph - N/A   Overcast
10:54 AM 37.0 °F 29.3 °F 33.1 °F 86% 29.83 in 10.0 mi North 11.5 mph - N/A   Overcast
11:54 AM 39.0 °F 32.8 °F 34.0 °F 82% 29.86 in 10.0 mi North 9.2 mph - N/A   Overcast
12:54 PM 37.9 °F 30.0 °F 33.1 °F 83% 29.88 in 10.0 mi North 12.7 mph - N/A   Overcast
1:54 PM 37.9 °F 31.5 °F 33.1 °F 83% 29.91 in 7.0 mi North 9.2 mph - N/A   Overcast
2:54 PM 37.9 °F 30.9 °F 33.1 °F 83% 29.93 in 9.0 mi North 10.4 mph - N/A   Overcast
3:54 PM 37.9 °F 30.9 °F 32.0 °F 79% 29.96 in 10.0 mi North 10.4 mph - N/A   Overcast
4:17 PM 39.0 °F 33.4 °F 33.1 °F 79% 29.98 in 10.0 mi North 8.1 mph - N/A   Overcast
4:54 PM 39.0 °F 33.4 °F 32.0 °F 76% 30.00 in 10.0 mi North 8.1 mph - N/A   Overcast
5:34 PM 39.0 °F 32.8 °F 32.0 °F 76% 30.01 in 10.0 mi North 9.2 mph - N/A   Overcast
5:54 PM 39.0 °F 33.4 °F 32.0 °F 76% 30.02 in 10.0 mi NNW 8.1 mph - N/A   Overcast
6:04 PM 39.0 °F 33.4 °F 32.0 °F 76% 30.03 in 10.0 mi North 8.1 mph - N/A   Overcast
6:54 PM 39.0 °F 34.0 °F 33.1 °F 79% 30.06 in 10.0 mi North 6.9 mph - N/A   Overcast
7:03 PM 39.0 °F 34.0 °F 32.0 °F 76% 30.06 in 10.0 mi North 6.9 mph - N/A   Overcast
7:54 PM 37.9 °F 31.5 °F 32.0 °F 79% 30.08 in 10.0 mi North 9.2 mph - N/A   Overcast
8:54 PM 37.9 °F 33.5 °F 30.9 °F 76% 30.12 in 10.0 mi North 5.8 mph - N/A   Overcast
9:54 PM 37.9 °F 33.5 °F 30.9 °F 76% 30.15 in 10.0 mi North 5.8 mph - N/A   Overcast
10:54 PM 37.0 °F 34.5 °F 30.9 °F 79% 30.17 in 10.0 mi North 3.5 mph - N/A   Overcast
11:49 PM 35.6 °F 31.7 °F 30.2 °F 81% 30.17 in 10.0 mi NW 4.6 mph - N/A   Scattered Clouds
11:54 PM 35.1 °F 31.0 °F 30.9 °F 85% 30.17 in 10.0 mi NNW 4.6 mph - N/A   Partly Cloudy